Home   Weather   Eckernförde   Past weeks

Flag for Germany Past Weather in Eckernförde, Schleswig-Holstein, Germany — Yesterday and Last 2 Weeks

Now
36 °F

Fog.


Feels Like: 30 °F
Forecast: 36 / 41 °F
Wind: 7 mph from Southwest

Location: Schleswig-Jagel

Current Time: Jan 20, 2017 at 7:13:19 am

Latest Report: Jan 20, 2017 at 6:20 am


Visibility: 0 mi

Pressure: 30.57 "Hg

Humidity: 100%

Dew Point: 36 °F

Location of EckernfördeLocation

Past Weather in Eckernförde — Graph

°F

Eckernförde Temperature Yesterday

Maximum temperature yesterday: 36 °F (at 12:20 pm)
Minimum temperature yesterday: 30 °F (at 12:20 am)
Average temperature yesterday: 34 °F

High & Low Weather Summary for the Past Weeks

 TemperatureHumidityPressure
High43 °F (Jan 11, 12:03 pm)100% (Jan 7, 10:20 am)30.77 "Hg (Jan 7, 10:20 am)
Low12 °F (Jan 6, 8:20 am)59% (Jan 6, 3:20 pm)29.15 "Hg (Jan 13, 4:20 am)
Average32 °F87%30.09 "Hg
* Reported Jan 5 5:20 am — Jan 20 5:20 am, Eckernförde, Weather by CustomWeather, © 2017

Note: Actual official high and low records may vary slightly from our data, if they occured in-between our weather recording intervals... More about our weather records

Advertising

Eckernförde Weather History for the Previous 24 Hours

Scroll right to see more
 ConditionsComfort  
Time TempWeatherWind HumidityBarometerVisibility
5:20 am
Fri, Jan 20
36 °FFog.7 mph93%30.57 "Hg0 mi
4:20 am36 °FChilly.8 mph93%30.57 "Hg0 mi
3:20 am36 °FChilly.8 mph93%30.57 "Hg0 mi
2:20 am36 °FChilly.9 mph93%30.57 "Hg0 mi
1:20 am36 °FChilly.7 mph100%30.60 "Hg0 mi
12:20 am36 °FChilly.6 mph93%30.60 "Hg1 mi
11:20 pm
Thu, Jan 19
34 °FChilly.7 mph100%30.60 "Hg1 mi
10:20 pm36 °FChilly.8 mph93%30.60 "Hg2 mi
9:42 pm34 °FDrizzle. Fog.8 mph100%30.60 "Hg1 mi
9:20 pm34 °FDrizzle. Fog.9 mph100%30.60 "Hg1 mi
8:34 pm36 °FDrizzle. Fog.8 mph93%30.60 "Hg2 mi
7:20 pm34 °FDrizzle. Fog.8 mph100%30.60 "Hg2 mi
6:20 pm34 °FDrizzle. Fog.8 mph100%30.60 "Hg2 mi
5:25 pm36 °FDrizzle. Fog.9 mph93%30.60 "Hg1 mi
5:05 pm36 °FDrizzle. Fog.10 mph93%30.60 "Hg2 mi
4:44 pm36 °FLow clouds.9 mph87%30.60 "Hg4 mi
4:20 pm36 °FLow clouds.9 mph87%30.60 "Hg4 mi
3:48 pm36 °FLow clouds.9 mph93%30.60 "Hg4 mi
3:20 pm36 °FLow clouds.8 mph93%30.60 "Hg4 mi
2:44 pm36 °FFog.9 mph93%30.60 "Hg3 mi
2:10 pm36 °FDrizzle. Fog.12 mph93%30.60 "Hg2 mi
1:20 pm36 °FFog.10 mph93%30.60 "Hg3 mi
12:20 pm36 °FFog.9 mph81%30.63 "Hg3 mi
11:20 am34 °FLow clouds.10 mph87%30.63 "Hg4 mi
10:20 am34 °FLow clouds.8 mph87%30.63 "Hg4 mi
9:20 am32 °FIce fog.8 mph93%30.63 "Hg3 mi
8:20 am32 °FLow clouds.8 mph93%30.63 "Hg4 mi
7:20 am32 °FLow clouds.9 mph93%30.60 "Hg4 mi
Weather by CustomWeather, © 2017

See weather overviewHow to use our weather pages